Location: S�deilles
(46.7500°N, 6.9329°E)
Time: 15:53:19
(UTC+00:00)

FALCON 9 DEB - Pass Details

Date: 08 March 2021
Orbit: 366 x 386 km, 53.0° (Epoch: 19 April)

Event Time Altitude Azimuth Distance (km) Brightness Sun altitude
Rises 19:03:53 0° 298° (WNW) 2,305 8.3 -17.1°
Reaches altitude 10° 19:05:58 10° 296° (WNW) 1,442 7.0 -17.5°
Maximum altitude 19:09:11 67° 213° (SSW) 430 3.1 -18.0°
Enters shadow 19:09:43 54° 158° (SSE) 487 3.1 -18.1°
